Weather Roundup
Issued by NWS Chicago, IL

Home | Current Version | Previous Version | Text Only | Print | Product List | Glossary On
Versions: 1 2 3 4 5 6 7 8 9 10 11 12 13 14 15 16 17 18 19 20 21 22 23 24 25 26 27 28 29 30 31 32 33 34 35 36 37 38 39 40 41 42 43 44 45 46 47 48 49 50
000
NZUS59 KLOT 181506
HRRLOT

CHICAGO AREA WEATHER ROUNDUP
NATIONAL WEATHER SERVICE CHICAGO/ROMEOVILLE IL
900 AM CST THU DEC 18 2014

NOTE: "FAIR" INDICATES FEW OR NO CLOUDS BELOW 12,000 FEET WITH NO
SIGNIFICANT WEATHER AND/OR OBSTRUCTIONS TO VISIBILITY.

* THESE STATIONS ARE NOT UNDER NWS QUALITY CONTROL. THEY ALSO MAY NOT
  REPORT WEATHER SUCH AS PRECIPITATION OR FOG.

ILZ005-006-012>014-019>023-181600-
NORTHEAST ILLINOIS

CITY           SKY/WX    TMP DP  RH WIND       PRES   REMARKS
OHARE          PTSUNNY   22  15  75 W6        30.29S WCI  14
MIDWAY         CLOUDY    25  16  68 W5        30.31R WCI  19
AURORA         CLOUDY    24  15  68 W3        30.31R
LANSING*       CLOUDY    25  18  73 SW6       30.31R WCI  18
JOLIET*        CLOUDY    24  16  73 CALM      30.32R
WAUKEGAN       PTSUNNY   20  15  81 W6        30.28R WCI  12
DUPAGE AIRPORT   N/A     23  15  71 W6        30.30R WCI  16
WHEELING       MOSUNNY   21  15  78 W5        30.32R WCI  15
KANKAKEE*      CLOUDY    25  19  78 SW3       30.33R
MORRIS*        PTSUNNY   24  20  85 W3        30.31S
LEWIS AIRPORT* CLOUDY    24  17  74 W3        30.31R
NORTHERLY IS     N/A     25  16  68 W7          N/A  WCI  17
$$

WIZ051-052-058>065-066-070>072-181600-
SOUTHEAST WISCONSIN

CITY           SKY/WX    TMP DP  RH WIND       PRES   REMARKS
MILWAUKEE      CLOUDY    24  18  77 NW7       30.28R WCI  16
KENOSHA*       MOSUNNY   21  17  84 W5        30.28R WCI  15
RACINE*        CLOUDY    21  16  81 W8        30.29R WCI  11
BURLINGTON     CLOUDY    19  16  90 CALM      30.28S
WAUKESHA         N/A     21  19  93 W5        30.29R FOG     WCI  15
$$

INZ001>003-010>013-019-020-181600-
NORTHWEST INDIANA

CITY           SKY/WX    TMP DP  RH WIND       PRES   REMARKS
GARY*          CLOUDY    27  18  69 W6        30.31R WCI  20
MICHIGAN CITY* NOT AVBL
RENSSELAER*    NOT AVBL
VALPARAISO     CLOUDY    24  17  74 SW7       30.29R WCI  16
$$

LMZ740>746-181600-
SOUTHERN LAKE MICHIGAN

STATION/POSITION TIME  SKY/WX   TEMP WIND        PRES    VSBY
                                AIR  DIR/SP/G
                 (UTC)          (F)  (DEG/KT/KT) (MB)    (MI)
HARRISON CRIB    1500            23  270/  9/ 11   N/A
BURNHAM HARBOR   1500            25  270/  4/  8   N/A
CALUMET HARBOR   1500            25  240/  3/  5 1024.7R
BURNS HARBOR     NOT AVBL
MICHIGAN CITY    NOT AVBL
$$

ABBREVIATIONS USED IN REMARKS
   TC - TEMPERATURE IN CELSIUS
  WCI - WIND CHILL INDEX
   HX - HEAT INDEX
  VSB - VISIBILITY
$$



USA.gov is the U.S. government's official web portal to all federal, state and local government web resources and services.